Wetbulb
36.63 37.01 36.26 37.02 39.38 40.70 41.55 39.59 38.94 43.88 45.59 45.87 46.39 46.75 47.02 47.40 47.72 47.40 48.00 49.02 51.01 51.00 51.20 52.03 53.20 53.26 53.11
32.54 33.89 34.86 36.78 37.48 37.06 39.82 40.62 38.77 42.39 44.85 45.22 44.96 45.07 46.29 46.66 47.27 46.86 47.13 47.76 48.49 49.31 49.48 49.80 50.53 52.59 52.91
32.01 34.21 35.25 35.80 35.71 36.13 36.12 36.29 39.23 42.36 43.10 43.57 43.90 44.57 44.70 45.45 45.46 45.05 45.18 45.49 45.70 46.74 47.74 48.65 49.59 50.82 52.35
32.65 32.71 33.38 34.18 33.30 32.83 33.56 36.18 36.06 38.68 40.92 41.40 42.93 43.38 42.94 42.92 42.90 43.27 43.40 43.72 45.05 45.72 46.41 47.39 48.02 49.23 50.87
30.86 31.26 30.96 30.77 31.10 33.84 33.58 34.54 35.07 36.07 35.80 36.00 36.21 36.83 37.61 40.39 40.90 41.94 42.46 43.13 43.54 44.20 45.20 46.40 47.87 48.12 49.20
29.06 29.09 29.55 30.17 32.41 32.61 32.32 32.38 30.65 33.73 31.18 33.46 34.19 35.30 35.54 36.65 40.86 41.43 41.78 42.02 42.53 43.10 43.57 44.83 46.65 47.43 46.80
29.73 29.47 29.34 30.88 32.24 31.30 31.03 30.61 31.21 34.06 33.35 32.26 33.10 32.15 35.09 37.09 39.98 40.33 40.34 42.08 41.83 41.96 43.04 43.85 45.26 46.74 45.76
32.17 32.19 32.04 32.64 33.14 32.93 31.80 31.95 34.82 34.75 32.19 30.62 29.94 30.84 33.49 34.86 38.14 39.23 40.70 41.91 41.70 41.56 42.14 43.75 44.80 45.28 45.35
38.70 38.98 38.82 39.10 38.31 33.67 29.82 30.54 29.60 30.95 33.06 32.41 29.99 28.62 30.34 31.70 33.47 38.75 40.32 40.02 40.35 40.87 41.71 41.57 42.64 43.57 43.49
32.13 33.23 34.99 33.42 37.23 32.19 29.24 29.77 30.34 28.36 32.97 30.18 28.90 28.01 26.23 28.49 30.53 35.37 34.15 37.96 39.42 39.42 40.31 40.73 41.34 41.20 41.56
31.73 30.55 30.41 30.02 30.27 30.25 30.14 32.68 30.93 28.21 29.98 29.27 26.41 28.79 28.71 28.55 28.90 33.84 33.86 35.30 35.68 36.56 38.74 38.94 40.14 40.73 39.75
29.19 29.68 28.45 30.06 28.42 29.15 30.49 30.54 31.75 30.35 31.24 29.03 25.76 22.41 25.90 26.95 27.65 31.93 33.12 34.53 34.59 34.08 33.27 36.19 38.56 40.59 41.39
28.60 29.16 28.53 28.64 27.97 27.46 28.98 28.39 26.74 27.90 31.07 26.24 24.47 27.63 28.74 28.13 28.73 30.10 31.22 32.55 34.02 32.60 33.29 32.50 32.68 36.56 34.30
28.75 29.88 26.47 28.15 29.35 26.40 19.39 19.77 17.13 24.85 27.09 25.88 24.58 25.15 27.98 30.00 31.13 29.79 30.94 29.65 32.54 32.93 32.94 32.77 33.00 36.19 36.60
27.19 27.97 28.68 29.55 28.50 24.15 19.79 15.58 23.13 19.57 19.35 22.98 25.16 27.37 30.74 30.04 29.06 29.84 29.77 30.50 32.11 32.17 31.76 31.72 32.23 33.13 35.31
28.89 28.63 29.46 27.67 24.93 21.93 20.98 15.26 16.55 20.54 18.46 18.18 15.89 23.79 28.62 25.51 32.37 29.35 29.89 30.51 32.11 32.16 31.64 30.03 29.77 31.99 33.07
28.76 28.17 26.64 25.32 26.66 21.03 19.99 18.29 21.07 21.94 20.82 17.31 12.98 14.92 21.81 22.03 24.37 33.21 29.83 31.07 31.54 30.11 30.44 30.26 29.51 30.93 32.01
MSLP
1021.39 1021.05 1020.72 1020.01 1019.71 1019.26 1018.48 1018.16 1017.60 1017.26 1016.70 1016.26 1015.76 1015.25 1014.82 1014.40 1014.05 1013.75 1013.32 1012.81 1012.17 1011.83 1011.50 1011.04 1010.43 1010.18 1010.16
1021.21 1020.64 1020.60 1020.10 1019.49 1019.25 1018.41 1017.92 1017.40 1016.79 1016.24 1015.87 1015.53 1015.08 1014.62 1014.12 1013.74 1013.30 1012.92 1012.47 1011.90 1011.44 1011.11 1010.79 1010.39 1009.76 1009.52
1021.11 1020.42 1020.03 1019.62 1019.12 1018.65 1018.35 1017.81 1017.14 1016.61 1016.17 1015.65 1015.20 1014.76 1014.38 1014.03 1013.59 1013.19 1012.68 1012.27 1011.74 1011.15 1010.65 1010.29 1009.92 1009.49 1009.04
1020.72 1020.28 1019.89 1019.31 1018.92 1018.65 1018.02 1017.51 1016.93 1016.22 1015.73 1015.36 1014.89 1014.54 1014.13 1013.65 1013.14 1012.79 1012.25 1011.71 1011.21 1010.64 1010.09 1009.67 1009.32 1009.03 1008.65
1020.43 1020.01 1019.63 1019.15 1018.94 1018.36 1017.92 1017.28 1016.68 1016.24 1015.72 1015.23 1014.75 1014.19 1013.77 1013.22 1012.79 1012.20 1011.67 1011.07 1010.62 1010.12 1009.63 1009.04 1008.57 1008.33 1008.09
1019.97 1019.76 1019.33 1019.05 1018.63 1018.30 1017.84 1017.44 1016.31 1015.65 1015.64 1015.05 1014.41 1013.80 1013.32 1012.87 1012.26 1011.66 1011.15 1010.57 1010.00 1009.41 1008.95 1008.56 1008.07 1007.47 1007.56
1019.32 1019.17 1018.89 1018.65 1018.33 1017.89 1017.52 1017.09 1016.25 1015.40 1015.49 1014.54 1013.91 1013.54 1012.90 1012.32 1011.86 1011.23 1010.70 1009.99 1009.47 1008.92 1008.13 1007.65 1007.34 1006.89 1006.70
1018.43 1018.24 1018.07 1017.88 1017.78 1017.27 1016.91 1016.45 1015.63 1014.98 1015.14 1014.35 1013.78 1013.34 1012.64 1012.03 1011.43 1010.69 1010.11 1009.49 1008.97 1008.29 1007.71 1006.83 1006.36 1006.14 1006.02
1017.52 1017.29 1017.05 1016.79 1016.54 1016.56 1016.53 1016.27 1015.28 1014.73 1014.44 1014.20 1013.51 1013.20 1012.39 1011.27 1010.64 1010.22 1009.74 1009.30 1008.58 1007.91 1007.17 1006.62 1005.91 1005.48 1005.23
1017.24 1016.97 1016.72 1016.69 1016.36 1016.34 1016.24 1015.94 1015.26 1014.57 1014.35 1014.26 1013.79 1013.59 1012.23 1010.81 1010.26 1009.83 1009.44 1008.99 1008.20 1007.44 1006.88 1006.23 1005.65 1005.11 1004.63
1016.72 1016.59 1016.41 1016.29 1016.14 1015.88 1015.68 1015.48 1015.10 1014.74 1014.25 1013.99 1013.56 1013.32 1012.97 1011.55 1010.14 1009.58 1009.11 1008.53 1007.91 1007.08 1006.45 1005.91 1005.21 1004.76 1004.09
1016.45 1016.26 1016.02 1015.79 1015.53 1015.44 1015.17 1015.02 1014.70 1014.40 1013.81 1013.77 1013.56 1013.13 1012.53 1011.43 1010.31 1009.08 1008.62 1008.10 1007.54 1006.81 1006.20 1005.49 1004.67 1004.00 1003.68
1015.77 1015.48 1015.28 1014.83 1015.05 1014.95 1014.62 1014.40 1014.21 1013.75 1013.18 1013.02 1012.94 1012.58 1012.30 1011.34 1010.27 1009.20 1008.41 1007.49 1007.20 1006.61 1005.90 1005.34 1004.62 1003.77 1003.51
1015.01 1014.62 1014.51 1014.57 1014.52 1014.35 1014.60 1014.26 1014.54 1013.78 1012.77 1012.34 1012.25 1012.15 1011.58 1010.88 1010.07 1008.99 1008.40 1007.94 1007.04 1006.50 1005.79 1005.09 1004.45 1003.69 1003.28
1014.43 1014.22 1014.07 1013.79 1013.76 1013.60 1013.93 1014.30 1014.43 1013.95 1013.18 1012.21 1011.55 1011.29 1010.98 1010.43 1009.58 1008.83 1008.15 1007.59 1007.04 1006.46 1005.88 1005.22 1004.67 1004.27 1003.74
1013.75 1013.53 1013.36 1013.42 1013.38 1013.51 1013.60 1013.84 1014.01 1013.44 1013.04 1012.51 1011.89 1011.22 1010.24 1009.48 1008.73 1008.48 1007.99 1007.59 1006.98 1006.43 1006.04 1005.59 1005.07 1004.77 1004.46
1013.37 1013.25 1013.07 1013.08 1013.20 1013.11 1013.14 1013.31 1013.28 1013.01 1012.54 1012.21 1011.83 1011.52 1010.68 1009.80 1008.89 1008.22 1008.17 1007.44 1006.99 1006.57 1006.21 1005.89 1005.53 1005.14 1004.93
Wind_Speed
3 4 4 6 8 9 10 6 4 15 19 20 19 20 22 22 21 22 22 24 22 22 22 24 25 22 20
3 3 4 6 6 7 7 7 7 15 22 21 21 21 21 22 23 21 22 21 22 24 24 24 26 25 22
6 3 4 4 4 5 5 6 5 13 18 20 21 20 20 20 21 23 24 22 23 20 18 21 24 25 24
5 4 4 4 3 5 7 6 8 9 12 14 17 18 21 22 20 20 22 24 24 23 23 20 21 23 25
4 3 4 6 8 7 8 7 7 7 7 5 4 8 8 14 15 19 22 24 25 25 25 24 21 20 25
3 4 5 5 5 6 6 8 10 4 1 7 4 8 7 7 16 22 23 26 27 26 25 26 24 18 19
5 5 5 4 7 7 6 7 10 9 4 10 5 7 6 8 19 25 24 21 20 24 24 25 24 21 17
6 6 6 7 7 6 7 8 10 10 3 7 2 6 6 7 20 23 21 19 24 24 23 24 23 20 19
15 18 20 20 15 5 5 6 10 9 3 4 3 4 6 10 7 17 18 23 23 22 23 22 22 18 14
7 10 10 8 13 5 4 7 9 6 1 3 6 3 6 4 3 7 5 17 21 22 22 22 21 10 10
6 5 5 5 4 4 5 4 5 6 6 2 3 7 5 10 5 9 7 8 10 11 16 18 19 16 5
5 6 5 4 5 4 5 5 5 9 9 3 4 3 6 11 11 6 7 8 8 7 6 11 16 16 10
8 8 6 5 3 3 5 6 6 7 7 4 4 6 7 8 10 9 11 6 8 5 7 6 6 4 3
8 7 3 2 3 3 2 2 1 5 6 6 6 4 6 7 8 11 10 6 7 9 8 6 5 5 2
6 6 6 5 5 3 2 1 3 4 4 5 5 5 6 9 8 9 9 8 7 7 5 5 2 5 2
7 6 5 5 4 2 2 3 3 4 4 3 3 4 5 5 11 8 7 5 5 6 4 3 3 3 4
4 4 4 4 7 2 3 2 3 5 4 2 2 1 5 8 4 7 7 7 6 5 3 2 3 2 2
Wind_Direction
259 279 288 293 301 305 305 293 271 313 316 315 315 313 311 308 312 310 311 311 301 295 296 296 286 279 278
275 262 263 287 287 292 297 301 310 313 319 314 317 313 309 311 308 311 312 307 300 293 290 291 288 281 274
291 254 251 270 291 294 287 283 283 292 304 308 310 312 318 319 317 314 312 307 309 301 305 301 288 279 271
282 273 258 276 275 294 300 295 296 295 294 294 296 306 308 306 306 301 301 303 306 305 298 289 289 282 266
272 272 295 314 307 303 296 297 292 278 279 290 302 303 294 301 299 297 302 306 305 301 297 293 281 282 272
252 271 284 288 296 292 294 306 306 248 287 288 265 279 288 284 287 304 303 306 304 298 293 290 285 267 283
249 251 268 278 287 286 288 285 290 291 282 291 293 286 286 289 302 307 307 306 312 315 301 284 284 270 266
247 256 250 261 246 264 279 283 288 297 260 278 285 283 287 290 298 300 302 303 312 314 306 307 276 259 261
285 287 295 294 297 307 301 300 302 303 242 265 294 288 286 292 280 297 305 311 311 320 313 307 303 292 279
285 288 283 282 293 275 263 283 290 295 252 282 301 308 303 262 274 288 278 300 310 316 310 304 300 285 273
265 258 268 275 269 272 266 247 280 276 266 266 276 303 285 303 299 304 297 299 302 299 299 300 297 289 254
268 271 253 250 259 268 279 274 257 258 276 240 262 242 289 295 298 299 297 296 296 295 303 297 303 297 268
273 267 242 218 244 251 257 269 270 273 267 240 221 275 286 286 291 297 306 309 302 307 308 302 302 293 299
264 265 231 218 217 204 226 272 351 295 287 265 250 227 275 279 290 295 298 299 307 306 304 303 313 305 290
260 256 246 235 235 201 217 261 259 268 284 291 295 250 254 280 289 288 295 302 301 307 307 314 331 345 36
264 251 240 244 243 259 208 208 252 271 273 269 300 319 295 290 244 280 294 293 307 311 302 305 320 350 349
291 281 258 253 281 239 243 231 281 276 271 277 300 332 309 313 277 305 302 301 310 309 301 296 295 324 302